Вернуться в каталог

STARLINK-33693

АктивенСвязьVLEO
NORAD 63409·PAYLOAD·🇺🇸 United States

Запущен Mar 31, 2025 с Cape Canaveral Space Force Station

Loading…

Ближайшие Пролёты (ближайшие 24 часа)

TLE

СвежийSource: CelesTrak SupGP

Эпоха: Sep 15, 2026, 03:30 UTC

1 63409C 25065L   26258.14631944  .00041634  00000+0  15080-2 0  2586
2 63409  43.0022 117.1636 0001746 276.1277 111.6489 15.27557594    11

Отслеживайте STARLINK-33693 в реальном времени с AllMySat

Download on the App Store